CAPE
1314 1413 1171 1281 1565 1609 1590 1441 1313 1586 1597 1504 1384 1163 1178 1231 1110 1099 1149 1200 1231 1393 1371 1445 1173 1230 1365 989 870 699 900 1060 669 819 698 655 665 635 983 1248 1096 1286
1606 1570 1053 1259 1801 1589 1984 1846 1392 1449 1323 1236 1338 1293 1172 1093 1100 1076 1001 1069 1076 1005 1222 1308 1472 1371 952 814 1246 704 608 1066 703 858 800 579 713 706 912 977 1230 872
1965 1601 1216 1684 1582 1734 1752 1797 1700 1404 1450 1440 1398 1220 1130 1000 916 1010 789 954 744 929 931 1191 1192 1236 932 738 889 749 1315 1154 1014 776 577 589 870 662 662 709 894 882
1964 1604 1684 1445 1536 1429 1712 1655 1643 1603 1318 1317 1270 1199 1038 873 989 739 691 366 779 828 1088 945 1070 908 816 986 1302 1262 783 732 640 654 624 677 608 614 501 462 709 613
1534 1654 1429 1591 1297 1448 1440 1372 1452 1290 1277 1304 1185 1026 866 872 805 654 695 636 692 724 866 963 873 821 799 960 1059 1208 1441 873 729 613 721 590 386 482 578 728 802 911
1260 1270 1297 1447 1407 1487 1468 1346 1214 1194 1129 904 990 813 738 676 698 518 594 517 518 626 638 821 798 843 806 713 1008 1193 1214 1207 1160 1010 1116 673 762 617 699 1054 1220 1106
1212 1290 1524 1306 1242 1461 1196 1192 1110 884 847 802 703 750 585 550 411 277 305 322 325 321 430 524 726 875 785 698 862 1214 1260 1071 994 831 822 1008 949 867 840 1160 1182 1118
1201 1305 1285 1157 1266 1264 1134 1149 1002 990 871 629 760 558 483 330 322 525 258 173 99 74 321 350 454 662 700 654 647 1060 1088 1073 1128 1095 839 854 804 899 1162 1253 1232 1166
1084 859 827 1060 1445 1321 1125 832 990 907 703 803 545 570 492 480 305 88 40 79 142 244 156 266 274 614 705 625 744 724 702 886 1192 1074 793 484 524 851 1048 1058 1069 1258
1022 767 756 845 1106 1240 1204 1077 972 786 724 542 343 372 388 455 24 18 0 216 150 164 208 256 520 601 493 377 319 460 432 412 457 622 636 522 496 365 785 870 945 949
882 908 885 911 981 1215 1232 1182 973 802 634 435 362 471 330 52 0 65 21 116 296 167 103 226 285 227 139 168 93 227 342 252 263 242 360 336 398 242 610 784 617 959
903 862 1069 1109 1094 1261 1197 1056 840 652 623 482 278 311 97 56 9 4 4 1 26 0 5 8 70 111 61 56 66 128 193 62 309 230 164 163 284 252 210 395 227 411
824 904 948 1148 1103 1181 1145 920 813 684 560 422 419 156 56 58 0 2 52 1 0 0 3 0 0 0 7 34 60 70 86 236 225 123 81 398 11 193 16 51 165 246
871 931 910 1070 1108 1127 974 824 676 704 580 431 225 76 72 5 0 0 0 0 22 46 0 0 0 0 0 0 0 0 153 24 98 58 120 16 109 45 90 36 176 102
716 874 990 941 926 938 921 821 647 632 492 235 105 91 57 0 0 0 0 6 22 0 0 0 0 0 0 0 0 0 5 38 15 22 26 64 2 22 4 47 20 0
388 280 462 891 765 790 687 660 527 443 302 66 31 5 4 0 0 0 4 18 5 0 0 0 0 0 0 0 0 0 0 92 146 0 14 3 20 100 3 53 0 0
250 231 396 372 680 627 528 433 235 298 26 19 15 6 22 2 0 0 0 4 0 0 0 0 0 0 0 0 0 0 0 0 184 149 8 94 6 57 170 147 2 0
374 282 345 288 276 354 447 538 415 399 278 132 122 43 26 32 93 3 0 0 0 0 0 0 0 0 0 0 0 0 0 0 24 34 119 111 10 16 6 8 5 10
367 294 356 321 213 200 298 378 351 336 377 363 370 305 240 183 29 0 0 0 0 0 0 0 0 0 0 0 0 0 0 0 0 73 0 0 6 87 2 101 266 217
300 326 280 268 273 252 155 31 50 75 98 74 36 37 21 0 0 0 0 0 0 0 0 0 0 0 0 0 0 0 0 0 2 191 80 68 124 95 301 239 289 129
241 287 188 269 279 247 95 0 0 0 0 0 0 0 0 0 0 0 0 0 0 0 0 0 0 0 0 0 0 0 0 0 9 86 134 135 94 157 133 178 245 350
187 105 147 140 117 63 0 0 0 0 0 0 0 0 0 0 0 2 0 0 0 0 0 0 0 0 0 0 0 0 0 0 52 23 78 226 429 196 170 435 283 254
81 35 30 29 55 0 0 0 0 0 0 0 0 0 0 0 0 0 0 0 0 0 0 0 0 0 0 0 0 0 0 0 0 16 56 113 163 153 16 201 212 102
20 6 7 2 16 28 3 0 0 0 0 0 0 0 0 0 0 3 4 2 2 0 0 0 0 0 0 0 0 0 0 0 0 8 25 3 88 47 0 0 2 0
0 6 11 11 15 11 5 2 0 0 0 0 0 0 0 0 1 5 9 6 3 0 0 0 0 0 0 0 0 0 0 0 0 0 0 0 0 0 0 0 0 0
1 1 1 5 2 0 1 0 0 0 0 0 2 1 0 0 0 5 9 10 6 0 0 2 0 0 0 0 0 0 0 0 0 0 0 0 0 0 0 0 0 0
Wind_Speed
23 20 21 19 16 17 17 19 21 20 18 15 16 15 16 16 15 15 15 15 14 14 15 13 13 17 18 18 19 17 18 21 18 13 13 15 13 14 14 12 11 11
22 20 20 16 17 20 19 23 22 21 18 17 16 18 18 17 16 15 15 15 14 14 16 16 15 16 19 16 17 16 15 17 17 15 13 15 13 13 12 11 11 10
21 19 17 17 19 20 21 22 21 20 19 20 21 20 18 16 15 15 14 13 13 17 16 17 18 15 19 16 17 13 15 16 17 18 13 9 13 11 11 9 9 7
21 19 18 19 20 20 20 22 21 22 22 21 19 18 16 15 16 16 15 14 15 18 17 17 16 15 14 15 13 16 14 18 18 18 10 6 7 10 8 9 9 6
22 22 19 18 18 19 20 21 22 21 19 19 18 17 17 17 17 16 16 15 17 17 17 16 15 14 15 15 14 11 15 19 17 17 14 11 5 8 7 9 8 7
25 25 21 17 18 18 19 20 21 20 20 18 16 16 16 16 16 17 17 17 15 17 16 16 14 14 13 14 14 14 14 16 18 17 17 18 14 10 8 8 10 11
27 27 23 20 17 17 18 19 20 21 18 16 17 16 15 14 16 16 17 16 17 14 15 14 15 15 14 14 16 16 15 15 17 17 18 16 18 18 14 11 13 12
26 28 25 22 17 16 18 18 20 18 18 17 18 17 14 16 15 18 17 15 nan nan 17 16 16 16 14 13 15 16 14 14 16 17 17 16 14 16 17 14 13 12
29 28 29 24 19 17 18 18 19 19 19 20 19 17 17 18 19 nan nan nan 18 18 18 18 17 18 15 13 13 13 13 13 14 15 16 15 14 13 17 16 14 11
33 32 33 27 21 20 18 19 20 19 21 20 20 19 21 21 nan nan nan 19 19 19 20 18 18 16 13 11 12 12 13 13 13 15 16 15 13 15 19 16 13 12
35 35 33 29 24 22 21 21 21 21 21 22 21 22 24 nan nan nan nan 19 17 19 19 18 17 17 16 17 nan 14 15 16 16 18 17 14 14 15 19 18 18 15
35 36 33 30 28 25 23 23 22 22 22 22 22 25 nan nan nan nan nan nan nan nan nan nan nan 18 nan nan nan 19 20 nan 20 19 17 15 16 17 20 20 19 19
34 35 33 31 30 27 25 24 23 23 23 23 23 28 nan nan nan nan nan nan nan nan nan nan nan nan nan nan nan nan nan 22 23 20 nan 21 nan 19 nan nan 21 21
32 33 32 31 32 29 26 25 25 24 22 24 26 nan nan nan nan nan nan nan nan nan nan nan nan nan nan nan nan nan 22 nan nan nan 25 nan 24 nan nan nan 23 23
33 31 35 33 33 30 28 27 26 24 23 26 27 nan nan nan nan nan nan nan nan nan nan nan nan nan nan nan nan nan nan nan nan nan nan nan nan nan nan nan nan nan
35 34 31 34 32 31 30 29 28 24 25 nan nan nan nan nan nan nan nan nan nan nan nan nan nan nan nan nan nan nan nan nan 24 nan nan nan nan 25 nan nan nan nan
34 35 33 30 32 33 33 31 28 28 nan nan nan nan nan nan nan nan nan nan nan nan nan nan nan nan nan nan nan nan nan nan 25 24 nan nan nan nan 24 26 nan nan
32 34 33 32 32 35 35 37 37 36 33 32 32 nan nan nan nan nan nan nan nan nan nan nan nan nan nan nan nan nan nan nan nan nan 25 23 nan nan nan nan nan nan
32 32 33 38 43 41 38 39 40 39 38 37 35 33 32 34 nan nan nan nan nan nan nan nan nan nan nan nan nan nan nan nan nan nan nan nan nan nan nan 32 29 31
37 38 41 46 48 46 41 nan nan nan nan nan nan nan nan nan nan nan nan nan nan nan nan nan nan nan nan nan nan nan nan nan nan 26 nan nan 32 nan 32 32 32 34
42 43 44 45 48 47 nan nan nan nan nan nan nan nan nan nan nan nan nan nan nan nan nan nan nan nan nan nan nan nan nan nan nan nan 28 29 nan 31 32 32 33 36
43 44 45 44 46 nan nan nan nan nan nan nan nan nan nan nan nan nan nan nan nan nan nan nan nan nan nan nan nan nan nan nan nan nan nan 32 32 32 32 37 38 39
nan nan nan nan nan nan nan nan nan nan nan nan nan nan nan nan nan nan nan nan nan nan nan nan nan nan nan nan nan nan nan nan nan nan nan 31 34 32 nan 40 38 39
nan nan nan nan nan nan nan nan nan nan nan nan nan nan nan nan nan nan nan nan nan nan nan nan nan nan nan nan nan nan nan nan nan nan nan nan nan nan nan nan nan nan
nan nan nan nan nan nan nan nan nan nan nan nan nan nan nan nan nan nan nan nan nan nan nan nan nan nan nan nan nan nan nan nan nan nan nan nan nan nan nan nan nan nan
nan nan nan nan nan nan nan nan nan nan nan nan nan nan nan nan nan nan nan nan nan nan nan nan nan nan nan nan nan nan nan nan nan nan nan nan nan nan nan nan nan nan
Wind_Direction
288 282 278 273 271 276 276 278 277 278 274 275 273 272 270 265 266 262 259 258 252 262 264 270 270 274 264 264 268 255 264 271 276 277 271 265 273 273 268 269 269 270
289 279 275 275 267 262 260 266 268 271 277 276 274 272 266 266 264 262 260 257 259 256 265 269 258 266 274 271 268 268 269 275 281 277 265 266 256 259 252 258 260 262
285 277 280 274 266 263 262 263 264 265 267 266 264 264 266 263 262 258 259 260 264 268 262 264 267 249 252 261 262 266 276 276 274 269 248 249 269 268 259 260 261 270
284 271 264 264 260 262 258 261 259 260 261 264 264 264 264 263 260 258 254 255 253 265 261 258 259 264 263 260 255 257 270 259 262 267 267 249 265 274 283 274 271 280
283 270 263 260 260 257 258 261 262 263 263 262 264 266 265 263 263 263 263 255 257 264 264 257 254 247 258 271 266 266 262 270 282 289 287 274 242 252 263 282 293 305
286 277 272 264 260 260 261 263 265 264 261 264 267 266 265 270 268 268 265 265 260 257 252 253 247 251 254 263 268 263 264 271 277 282 284 287 289 287 283 280 290 292
282 277 272 264 261 260 262 262 261 262 264 262 264 262 265 264 265 266 262 262 259 250 252 241 246 248 245 252 259 260 256 258 264 267 268 267 284 300 296 278 278 279
282 281 277 270 265 264 260 260 260 262 263 265 260 266 266 268 262 256 257 249 nan nan 233 240 245 247 245 245 252 260 253 253 262 269 266 269 267 278 281 275 266 264
284 283 277 272 268 261 262 260 260 263 266 263 262 258 257 258 257 nan nan nan 245 240 241 238 236 239 235 233 241 255 262 259 269 268 269 267 268 271 277 272 267 256
283 283 282 275 266 262 261 256 256 262 264 267 264 257 258 255 nan nan nan 251 250 249 245 240 236 236 236 240 251 251 255 260 260 264 272 277 272 271 271 266 265 265
282 281 279 275 269 262 257 254 255 259 264 267 264 261 256 nan nan nan nan 253 253 254 251 243 238 235 237 242 nan 251 259 266 260 256 257 260 259 258 270 272 267 267
273 275 273 270 268 260 257 256 256 260 264 264 268 263 nan nan nan nan nan nan nan nan nan nan nan 246 nan nan nan 248 257 nan 261 260 260 253 260 256 261 264 271 269
268 264 258 263 266 257 253 256 257 260 264 267 265 263 nan nan nan nan nan nan nan nan nan nan nan nan nan nan nan nan nan 252 257 260 nan 253 nan 247 nan nan 267 276
270 256 250 258 263 257 255 257 256 259 261 263 264 nan nan nan nan nan nan nan nan nan nan nan nan nan nan nan nan nan 254 nan nan nan 249 nan 248 nan nan nan 256 259
270 259 251 255 261 257 257 254 255 255 258 259 260 nan nan nan nan nan nan nan nan nan nan nan nan nan nan nan nan nan nan nan nan nan nan nan nan nan nan nan nan nan
268 250 241 251 256 257 258 255 251 251 250 nan nan nan nan nan nan nan nan nan nan nan nan nan nan nan nan nan nan nan nan nan 252 nan nan nan nan 250 nan nan nan nan
270 269 247 237 248 253 257 256 251 246 nan nan nan nan nan nan nan nan nan nan nan nan nan nan nan nan nan nan nan nan nan nan 245 254 nan nan nan nan 257 258 nan nan
262 257 242 237 248 256 255 250 245 241 240 244 247 nan nan nan nan nan nan nan nan nan nan nan nan nan nan nan nan nan nan nan nan nan 253 248 nan nan nan nan nan nan
259 251 245 248 250 252 252 250 246 244 241 239 240 242 243 245 nan nan nan nan nan nan nan nan nan nan nan nan nan nan nan nan nan nan nan nan nan nan nan 246 252 262
249 253 251 251 250 248 250 nan nan nan nan nan nan nan nan nan nan nan nan nan nan nan nan nan nan nan nan nan nan nan nan nan nan 240 nan nan 246 nan 248 251 252 254
247 245 247 247 243 244 nan nan nan nan nan nan nan nan nan nan nan nan nan nan nan nan nan nan nan nan nan nan nan nan nan nan nan nan 240 246 nan 247 250 252 252 253
246 243 243 242 239 nan nan nan nan nan nan nan nan nan nan nan nan nan nan nan nan nan nan nan nan nan nan nan nan nan nan nan nan nan nan 243 241 245 245 247 248 252
nan nan nan nan nan nan nan nan nan nan nan nan nan nan nan nan nan nan nan nan nan nan nan nan nan nan nan nan nan nan nan nan nan nan nan 246 247 243 nan 245 244 251
nan nan nan nan nan nan nan nan nan nan nan nan nan nan nan nan nan nan nan nan nan nan nan nan nan nan nan nan nan nan nan nan nan nan nan nan nan nan nan nan nan nan
nan nan nan nan nan nan nan nan nan nan nan nan nan nan nan nan nan nan nan nan nan nan nan nan nan nan nan nan nan nan nan nan nan nan nan nan nan nan nan nan nan nan
nan nan nan nan nan nan nan nan nan nan nan nan nan nan nan nan nan nan nan nan nan nan nan nan nan nan nan nan nan nan nan nan nan nan nan nan nan nan nan nan nan nan